sat.trackr.live / text

‹ back to catalog

SES-19

NORAD 55971 · 2023-038B

PAYLOAD ACTIVE UNKNOWN

§ Identity

Operator
Country
SES
Launch date
2023-03-17
Launch site
AFETR
Launch vehicle
Mass (kg)
RCS (m²)

Purposes: comms

External: N2YO · Heavens-Above · Gunter

§ Orbital elements

Epoch: 2026-09-20T04:32:35.291040Z

Period
1,436.09 min
Inclination
0.0390°
Eccentricity
0.0001685
Mean motion
1.00272549 rev/d
Perigee alt
35,779.3 km
Apogee alt
35,793.5 km
Semi-major
42,164.5 km
B*
0.0000e+0
RAAN
282.2808°
Arg perigee
245.1945°
Mean anomaly
124.8669°
Rev number
1,304

§ Raw data

SES-191 55971U 23038B   26263.18929735  .00000083  00000+0  00000+0 0  99952 55971   0.0390 282.2808 0001685 245.1945 124.8669  1.00272549 13045

JSON: /api/v1/satellites/55971 · /tle

For live sub-satellite position, see the globe view (requires WebGL).

§ Visibility from observer

Set your observer location to see the next 7 days of passes ≥ 10°. The values pass through the URL so the page stays shareable.

No JS? Fill the form by hand. The geolocation button needs JavaScript.